Simultaneous Nadir Overpasses (SNOs) Predictions

Prediction of SNOs between GOES-16 and METOP-B Satellite Orbit:

Table of predicted SNOs for the next 14.0 days since TLE Epoch: 3/1/2019
Index Date Time (GOES-16) GOES-16 Lat,Lon METOP-B Lat,Lon Distance(km) Time Diff (sec)
1 03/02/2019 02:42:29 -0.02, -75.19 -0.80, -78.56 385.09 80
2 03/03/2019 02:24:30 -0.01, -75.19 0.33, -73.57 184.16 80
3 03/04/2019 14:43:24 0.01, -75.22 0.67, -78.14 333.24 80
4 03/05/2019 14:20:05 0.01, -75.22 -0.47, -73.15 236.50 80
5 03/07/2019 02:39:06 -0.01, -75.22 -0.59, -77.74 287.61 80
6 03/08/2019 02:21:07 -0.01, -75.23 0.54, -72.75 282.60 80
7 03/09/2019 14:40:00 0.01, -75.27 0.46, -77.32 233.48 80
8 03/10/2019 14:16:42 0.01, -75.28 -0.68, -72.33 336.94 80
9 03/12/2019 02:38:22 -0.01, -75.28 -0.38, -76.91 186.43 80
10 03/13/2019 02:17:44 -0.00, -75.29 0.75, -71.92 384.06 80
11 03/14/2019 14:36:37 0.00, -75.33 0.24, -76.49 131.72 80




NCC Satellite Simultaneous Nadir Overpasses (SNOs) Prediction Service
